#timestamp,LO_Frequency,Hit,Temp,Hum 
1478408415.5,286046978.8,N,0.0,0.0
1478408435.3,286046978.8,N,0.0,0.0
1478408455.2,286046978.7,N,0.0,0.0
1478408475.0,286046976.2,N,0.0,0.0
1478408475.9,286046976.2,N,0.0,0.0
1478408495.7,286046976.0,N,0.0,0.0
1478408515.6,286046975.9,N,0.0,0.0
1478408535.4,286046976.1,N,0.0,0.0
1478408555.2,286046976.6,N,0.0,0.0
1478408575.1,286046976.6,N,0.0,0.0
1478408576.0,286046976.6,N,0.0,0.0
1478408595.8,286046976.7,N,0.0,0.0
1478408615.6,286046977.1,N,0.0,0.0
1478408635.5,286046972.6,N,0.0,0.0
1478408655.3,286046974.8,N,0.0,0.0
1478408675.1,286046972.6,N,0.0,0.0
1478408695.9,286046975.5,N,0.0,0.0
1478408715.7,286046974.8,N,0.0,0.0
1478408735.5,286046972.8,N,0.0,0.0
1478408755.4,286046972.7,N,0.0,0.0
1478408775.2,286046973.5,N,0.0,0.0
1478408795.0,286046971.1,N,0.0,0.0
1478408795.9,286046971.1,N,0.0,0.0
1478408815.8,286046972.0,N,0.0,0.0
1478408835.6,286046972.0,N,0.0,0.0
1478408855.4,286046971.6,N,0.0,0.0
1478408875.2,286046970.0,N,0.0,0.0
1478408895.1,286046969.4,N,0.0,0.0
1478408896.0,286046969.4,N,0.0,0.0
1478408915.8,286046968.1,N,0.0,0.0
1478408935.6,286046968.5,N,0.0,0.0
1478408955.5,286046968.9,N,0.0,0.0
1478408975.3,286046968.2,N,0.0,0.0
1478408995.1,286046968.5,N,0.0,0.0
1478409015.9,286046969.9,N,0.0,0.0
1478409035.7,286046967.7,N,0.0,0.0
1478409055.5,286046968.6,N,0.0,0.0
1478409075.4,286046966.1,Y,0.0,0.0
1478409095.2,286046980.1,N,0.0,0.0
1478409115.0,286046979.9,N,0.0,0.0
1478409115.9,286046979.9,N,0.0,0.0
1478409135.8,286046979.7,N,0.0,0.0
1478409155.6,286046977.9,N,0.0,0.0
1478409175.4,286046977.3,N,0.0,0.0
1478409195.3,286046977.6,N,0.0,0.0
1478409215.1,286046980.4,N,0.0,0.0
1478409235.8,286046978.0,N,0.0,0.0
1478409255.7,286046978.7,N,0.0,0.0
1478409275.5,286046978.4,N,0.0,0.0
1478409295.3,286046976.9,N,0.0,0.0
1478409315.2,286046976.0,N,0.0,0.0
1478409335.9,286046977.9,N,0.0,0.0
1478409355.7,286046978.3,N,0.0,0.0
1478409375.6,286046976.2,N,0.0,0.0
1478409395.4,286046978.4,N,0.0,0.0
1478409415.2,286046977.1,N,0.0,0.0
1478409435.0,286046974.2,N,0.0,0.0
1478409436.0,286046974.2,N,0.0,0.0
1478409455.8,286046976.9,N,0.0,0.0
1478409475.6,286046976.4,N,0.0,0.0
1478409495.4,286046976.7,N,0.0,0.0
1478409515.3,286046977.0,N,0.0,0.0
1478409535.1,286046976.6,N,0.0,0.0
1478409555.8,286046976.9,N,0.0,0.0
1478409575.7,286046978.3,N,0.0,0.0
1478409595.5,286046975.7,N,0.0,0.0
1478409615.3,286046978.2,N,0.0,0.0
1478409635.2,286046977.6,N,0.0,0.0
1478409655.9,286046978.7,N,0.0,0.0
1478409675.7,286046977.6,N,0.0,0.0
1478409695.6,286046978.4,N,0.0,0.0
1478409715.4,286046980.0,N,0.0,0.0
1478409735.2,286046976.8,N,0.0,0.0
1478409755.1,286046977.0,N,0.0,0.0
1478409756.0,286046977.0,N,0.0,0.0
1478409775.8,286046974.3,N,0.0,0.0
1478409795.6,286046974.2,N,0.0,0.0
1478409815.5,286046978.2,N,0.0,0.0
1478409835.3,286046976.2,N,0.0,0.0
1478409855.1,286046980.7,N,0.0,0.0
1478409875.8,286046994.8,N,0.0,0.0
1478409895.7,286047001.7,N,0.0,0.0
1478409915.5,286047003.2,N,0.0,0.0
1478409935.3,286047001.3,N,0.0,0.0
1478409955.2,286047005.4,N,0.0,0.0
1478409975.9,286047003.8,N,0.0,0.0
1478409995.7,286047004.5,N,0.0,0.0
1478410015.6,286047010.7,N,0.0,0.0
1478410035.4,286047009.9,N,0.0,0.0
1478410055.2,286047012.4,N,0.0,0.0
1478410075.1,286047014.0,N,0.0,0.0
1478410076.0,286047014.0,N,0.0,0.0
1478410095.8,286047011.0,N,0.0,0.0
1478410115.6,286047009.3,N,0.0,0.0
1478410135.5,286047012.1,N,0.0,0.0
1478410155.3,286047013.8,N,0.0,0.0
1478410175.1,286047013.5,N,0.0,0.0
1478410195.9,286047013.2,N,0.0,0.0
1478410215.7,286047014.9,N,0.0,0.0
1478410235.5,286047015.6,N,0.0,0.0
1478410255.3,286047015.3,N,0.0,0.0
1478410275.2,286047014.6,N,0.0,0.0
1478410295.0,286047014.6,N,0.0,0.0
1478410295.9,286047014.6,N,0.0,0.0
1478410315.7,286047019.8,N,0.0,0.0
1478410335.6,286047020.2,N,0.0,0.0
1478410355.4,286047017.7,N,0.0,0.0
1478410375.2,286047017.3,N,0.0,0.0
1478410395.1,286047017.9,N,0.0,0.0
1478410396.0,286047017.9,N,0.0,0.0
1478410415.8,286047018.8,N,0.0,0.0
1478410435.6,286047018.1,N,0.0,0.0
1478410455.5,286047017.9,N,0.0,0.0
1478410475.3,286047018.0,N,0.0,0.0
1478410495.1,286047016.8,N,0.0,0.0
1478410515.9,286047018.7,N,0.0,0.0
1478410535.7,286047016.3,N,0.0,0.0
1478410555.5,286047023.7,N,0.0,0.0
1478410575.4,286047025.2,N,0.0,0.0
1478410595.2,286047021.7,N,0.0,0.0
1478410615.0,286047018.2,N,0.0,0.0
1478410615.9,286047018.2,N,0.0,0.0
1478410635.8,286047018.9,N,0.0,0.0
1478410655.6,286047021.8,N,0.0,0.0
1478410675.4,286047023.0,N,0.0,0.0
1478410695.3,286047018.0,N,0.0,0.0
1478410715.1,286047021.1,N,0.0,0.0
1478410716.0,286047021.1,N,0.0,0.0
1478410735.8,286047021.3,N,0.0,0.0
1478410755.6,286047017.8,N,0.0,0.0
1478410775.5,286047018.2,N,0.0,0.0
1478410795.3,286047024.9,N,0.0,0.0
1478410815.1,286047022.7,N,0.0,0.0
1478410835.9,286047021.8,N,0.0,0.0
1478410855.7,286047019.5,N,0.0,0.0
1478410875.5,286047022.0,N,0.0,0.0
1478410895.4,286047021.5,N,0.0,0.0
1478410915.2,286047023.2,N,0.0,0.0
1478410935.0,286047019.1,N,0.0,0.0
1478410935.9,286047019.1,N,0.0,0.0
1478410955.8,286047022.0,N,0.0,0.0
1478410975.6,286047019.4,N,0.0,0.0
1478410995.4,286047019.4,N,0.0,0.0
1478411015.3,286047019.4,N,0.0,0.0
1478411035.1,286047019.0,N,0.0,0.0
1478411036.0,286047019.0,N,0.0,0.0
1478411055.8,286047018.9,N,0.0,0.0
1478411075.7,286047025.1,N,0.0,0.0
1478411095.5,286047020.8,N,0.0,0.0
1478411115.3,286047023.6,N,0.0,0.0
1478411135.2,286047021.6,N,0.0,0.0
1478411155.9,286047021.7,N,0.0,0.0
1478411175.7,286047018.9,N,0.0,0.0
1478411195.5,286047019.3,N,0.0,0.0
1478411215.4,286047018.8,N,0.0,0.0
1478411235.2,286047018.9,N,0.0,0.0
1478411255.0,286047019.7,N,0.0,0.0
1478411255.9,286047019.7,N,0.0,0.0
1478411275.8,286047020.3,N,0.0,0.0
1478411295.6,286047020.3,N,0.0,0.0
1478411315.4,286047018.2,N,0.0,0.0
1478411335.3,286047016.9,N,0.0,0.0
1478411355.1,286047023.6,N,0.0,0.0
1478411375.8,286047017.2,N,0.0,0.0
1478411395.7,286047007.7,N,0.0,0.0
1478411415.5,286047016.2,N,0.0,0.0
1478411435.3,286047020.7,N,0.0,0.0
1478411455.2,286047015.3,N,0.0,0.0
1478411475.9,286047012.8,N,0.0,0.0
1478411495.7,286047027.0,N,0.0,0.0
1478411515.6,286047021.1,N,0.0,0.0
1478411535.4,286047018.6,N,0.0,0.0
1478411555.2,286047016.5,N,0.0,0.0
1478411575.1,286047017.0,N,0.0,0.0
1478411576.0,286047017.0,N,0.0,0.0
1478411595.8,286047016.0,N,0.0,0.0
1478411615.6,286047018.8,N,0.0,0.0
1478411635.4,286047018.5,N,0.0,0.0
1478411655.3,286047016.9,N,0.0,0.0
1478411675.1,286047015.7,N,0.0,0.0
1478411695.8,286047014.1,N,0.0,0.0
1478411715.7,286047016.4,N,0.0,0.0
1478411735.5,286047014.3,N,0.0,0.0
1478411755.3,286047012.5,N,0.0,0.0
1478411775.2,286047017.1,N,0.0,0.0
1478411795.9,286047014.1,N,0.0,0.0
1478411815.7,286047015.7,N,0.0,0.0
1478411835.6,286047020.3,N,0.0,0.0
1478411855.4,286047016.9,N,0.0,0.0
1478411875.2,286047015.0,N,0.0,0.0
1478411895.1,286047014.6,N,0.0,0.0
1478411896.0,286047014.6,N,0.0,0.0
1478411915.8,286047017.1,N,0.0,0.0
1478411935.6,286047014.8,N,0.0,0.0
1478411955.5,286047014.1,N,0.0,0.0
1478411975.3,286047016.8,N,0.0,0.0
1478411995.1,286047014.1,N,0.0,0.0
